Amritsar, India

10:16 AM IST on August 17, 2017 (GMT +0530)
Amritsar

Weather History for VIAR - April, 2013

Change the Weather History Date:

Thursday, April 11, 2013

  Actual Average Record
Temperature  
Mean Temperature 76 °F -  
Max Temperature 91 °F 90 °F 98 °F (2001)
Min Temperature 60 °F 66 °F 52 °F (2014)
Cooling Degree Days 10    
Growing Degree Days 26 (Base 50)    
Moisture  
Dew Point 61 °F    
Average Humidity 63    
Maximum Humidity 100    
Minimum Humidity 26    
Precipitation  
Precipitation 0.00 in - - ()
Sea Level Pressure  
Sea Level Pressure 29.80 in    
Wind  
Wind Speed 2 mph ()    
Max Wind Speed 8 mph    
Max Gust Speed -    
Visibility 2.9 miles    
Events      
Averages and records for this station are not official NWS values.
T = Trace of Precipitation, MM = Missing Value Source: Averaged Metar Reports

Daily Weather History Graph

Daily Weather History Graph

Search for Another Location

Airport or City:

Trip Planner

Search our weather history database for the weather conditions in past years. The results will help you decide how hot, cold, wet, or windy it might be!

Date:

Astronomy

Apr. 11, 2013 Rise Set
Actual Time 6:07 AM IST 6:56 PM IST
Civil Twilight 5:42 AM IST 7:21 PM IST
Nautical Twilight 5:12 AM IST 7:50 PM IST
Astronomical Twilight 4:43 AM IST 8:20 PM IST
Moon 6:25 AM IST (4/11) 7:58 PM IST (4/11)
Length of Visible Light 13h 39m
Length of Day
12h 49m
New Moon, 1% of the Moon is Illuminated
Apr 11
New Moon
Apr 18
First Quarter
Apr 26
Full
May 2
Last Quarter
May 10
New

Hourly Weather History & Observations

Time (IST) Temp. Heat Index Dew Point Humidity Pressure Visibility Wind Dir Wind Speed Gust Speed Precip Events Conditions
12:00 AM 68.0 °F - 64.4 °F 88% 29.83 in 2.5 mi Calm Calm - N/A   Partly Cloudy
12:30 AM 66.2 °F - 66.2 °F 100% 29.83 in 2.5 mi Variable 3.5 mph - N/A   Partly Cloudy
1:00 AM 66.2 °F - 66.2 °F 100% 29.80 in 2.5 mi Calm Calm - N/A   Partly Cloudy
1:30 AM 66.2 °F - 62.6 °F 88% 29.80 in 2.5 mi Calm Calm - N/A   Partly Cloudy
2:00 AM 66.2 °F - 64.4 °F 94% 29.80 in 2.5 mi Calm Calm - N/A   Partly Cloudy
3:00 AM 64.4 °F - 62.6 °F 94% 29.80 in 2.5 mi Calm Calm - N/A   Partly Cloudy
4:00 AM 62.6 °F - 62.6 °F 100% 29.80 in 2.5 mi Variable 2.3 mph - N/A   Mist
5:00 AM 62.6 °F - 62.6 °F 100% 29.80 in 2.5 mi NNW 8.1 mph - N/A   Mist
5:30 AM 62 °F - 62 °F 100% 29.79 in 2 mi NW 6.9 mph - -   Mist
5:30 AM 62.6 °F - 62.6 °F 100% 29.80 in 2.5 mi NW 6.9 mph - N/A   Mist
6:00 AM 60.8 °F - 60.8 °F 100% 29.80 in 2.5 mi Calm Calm - N/A   Mist
6:30 AM 62.6 °F - 62.6 °F 100% 29.80 in 2.5 mi Calm Calm - N/A   Mist
7:00 AM 62.6 °F - 62.6 °F 100% 29.83 in 2.5 mi Calm Calm - N/A   Mist
7:30 AM 66.2 °F - 66.2 °F 100% 29.83 in 2.5 mi Calm Calm - N/A   Mist
8:00 AM 68.0 °F - 66.2 °F 94% 29.83 in 2.5 mi Calm Calm - N/A   Mist
9:00 AM 75.2 °F - 62.6 °F 65% 29.83 in 3.1 mi Variable 3.5 mph - N/A   Haze
9:30 AM 77.0 °F - 64.4 °F 65% 29.83 in 3.7 mi Variable 3.5 mph - N/A   Unknown
10:00 AM 78.8 °F - 62.6 °F 57% 29.86 in 3.7 mi NW 5.8 mph - N/A   Unknown
11:00 AM 82.4 °F 82.5 °F 59.0 °F 45% 29.86 in 3.7 mi NW 8.1 mph - N/A   Unknown
11:30 AM 85 °F - 60 °F 33% 29.81 in 2 mi NW 6.9 mph - -  
11:30 AM 84.2 °F 83.8 °F 59.0 °F 42% 29.86 in 3.7 mi NW 6.9 mph - N/A   Unknown
12:30 PM 87.8 °F 87.1 °F 59.0 °F 38% 29.83 in 3.7 mi WNW 6.9 mph - N/A   Unknown
1:00 PM 87.8 °F 87.1 °F 59.0 °F 38% 29.83 in 3.7 mi Variable 6.9 mph - N/A   Unknown
1:30 PM 89.6 °F 88.1 °F 57.2 °F 33% 29.80 in 3.7 mi WNW 6.9 mph - N/A   Unknown
2:00 PM 89.6 °F 88.1 °F 57.2 °F 33% 29.80 in 3.7 mi WNW 4.6 mph - N/A   Unknown
2:30 PM 90 °F - 60 °F 26% 29.75 in 2 mi NW 4.6 mph - -  
2:30 PM 89.6 °F 88.9 °F 59.0 °F 36% 29.80 in 3.7 mi Variable 4.6 mph - N/A   Unknown
3:00 PM 89.6 °F 88.9 °F 59.0 °F 36% 29.77 in 3.7 mi Variable 6.9 mph - N/A   Unknown
3:30 PM 89.6 °F 88.9 °F 59.0 °F 36% 29.77 in 3.7 mi WSW 6.9 mph - N/A   Unknown
4:00 PM 89.6 °F 88.1 °F 57.2 °F 33% 29.77 in 3.7 mi West 5.8 mph - N/A   Unknown
4:30 PM 89.6 °F 88.1 °F 57.2 °F 33% 29.77 in 3.7 mi WNW 4.6 mph - N/A   Unknown
5:00 PM 89.6 °F 88.1 °F 57.2 °F 33% 29.77 in 3.7 mi West 4.6 mph - N/A   Unknown
5:30 PM 89 °F - 59 °F 27% 29.72 in 2 mi West 5.8 mph - -   Smoke
5:30 PM 89.6 °F 88.9 °F 59.0 °F 36% 29.77 in 3.1 mi West 5.8 mph - N/A   Smoke
6:00 PM 87.8 °F 87.6 °F 60.8 °F 40% 29.77 in 3.1 mi Variable 3.5 mph - N/A   Smoke
6:30 PM 86.0 °F 86.1 °F 60.8 °F 43% 29.77 in 3.1 mi Calm Calm - N/A   Smoke
7:00 PM 84.2 °F 85.0 °F 62.6 °F 48% 29.77 in 3.1 mi Calm Calm - N/A   Smoke
7:30 PM 82.4 °F 82.9 °F 60.8 °F 48% 29.77 in 3.1 mi Calm Calm - N/A   Smoke
8:00 PM 78.8 °F - 64.4 °F 61% 29.80 in 2.5 mi Calm Calm - N/A   Haze
8:30 PM 75 °F - 64 °F 60% 29.77 in 2 mi WSW 2.3 mph - -   Haze
8:30 PM 75.2 °F - 64.4 °F 69% 29.80 in 2.5 mi Variable 2.3 mph - N/A   Haze
9:00 PM 75.2 °F - 64.4 °F 69% 29.80 in 2.5 mi Calm Calm - N/A   Haze
9:30 PM 75.2 °F - 62.6 °F 65% 29.80 in 2.5 mi Calm Calm - N/A   Haze
10:00 PM 73.4 °F - 60.8 °F 65% 29.80 in 2.5 mi Calm Calm - N/A   Haze
10:30 PM 75.2 °F - 60.8 °F 61% 29.80 in 2.5 mi Calm Calm - N/A   Haze
11:00 PM 71.6 °F - 60.8 °F 69% 29.80 in 2.5 mi Calm Calm - N/A   Haze
11:30 PM 73 °F - 61 °F 57% 29.78 in 2 mi Calm Calm - -   Haze
11:30 PM 73.4 °F - 60.8 °F 65% 29.80 in 2.5 mi Calm Calm - N/A   Haze